Flag for Norway Weather past 2 weeks in Stavern, Norway

Now
27 °F

Chilly.


Feels Like: 23 °F
Forecast: 34 / 42 °F
Wind: 3 mph from Southeast

Location: Torp

Current Time: Jan 25, 2015 at 3:33:41 PM

Latest Report: Jan 25, 2015 at 2:50 PM


Visibility: N/A

Pressure: 30.09 "Hg

Humidity: 93%

Dew point: 25 °F

Location of StavernLocation

Historic Weather in Stavern — Graph

°F

Stavern temperature yesterday

Maximum temperature yesterday: 36 °F (at 12:20 AM)
Minimum temperature yesterday: 28 °F (at 10:20 PM)
Average temperature yesterday: 33 °F

Past Weeks' High & Low Weather Summary

 TemperatureHumidityPressure
High45 °F (Jan 16, 12:50 PM)100% (Jan 11, 2:20 PM)30.21 "Hg (Jan 11, 2:20 PM)
Low9 °F (Jan 23, 9:50 AM)52% (Jan 11, 3:20 AM)28.35 "Hg (Jan 10, 6:50 PM)
Average33 °F86%29.57 "Hg
* Reported Jan 10 2:20 PM — Jan 25 2:20 PM, Stavern, Weather by CustomWeather, © 2014

Note: Actual official high and low records may vary slightly from our data, if they occured in-between our weather recording intervals... More about our weather records

Advertising

Stavern weather history for previous 24 hours

 ConditionsComfort  
Time TempWeatherWind HumidityBarometerVisibility
2:20 PM
Jan 25
28 °FFog.2 mph93%30.09 "HgN/A
1:50 PM28 °FChilly.1 mph86%30.12 "HgN/A
1:20 PM28 °FChilly.3 mph93%30.09 "HgN/A
12:50 PM27 °FChilly.3 mph93%30.09 "HgN/A
12:20 PM27 °FLight fog.2 mph93%30.09 "Hg1 mi
11:50 AM27 °FFog.3 mph86%30.09 "HgN/A
11:20 AM27 °FSunny.1 mph80%30.09 "Hg10 mi
10:50 AM25 °FSunny.2 mph86%30.09 "Hg10 mi
10:20 AM25 °FSunny.1 mph93%30.09 "Hg10 mi
9:50 AM18 °FSunny.5 mph93%30.07 "Hg10 mi
9:20 AM23 °FFog.1 mph93%30.09 "HgN/A
8:50 AM19 °FFog.1 mph93%30.07 "HgN/A
8:20 AM21 °FClear.3 mph93%30.07 "Hg10 mi
7:50 AM21 °FClear.3 mph93%30.04 "Hg10 mi
7:20 AM25 °FClear.2 mph86%30.04 "Hg10 mi
6:50 AM25 °FClear.2 mph93%30.01 "Hg10 mi
6:20 AM25 °FClear.5 mph93%30.01 "Hg10 mi
5:50 AM25 °FClear.5 mph93%30.01 "Hg10 mi
5:20 AM25 °FIce fog.2 mph93%29.98 "Hg1 mi
4:50 AM27 °FChilly.3 mph93%29.98 "HgN/A
4:20 AM27 °FChilly.2 mph93%29.95 "Hg6 mi
3:50 AM23 °FCold.2 mph100%29.95 "HgN/A
3:20 AM25 °FCold.1 mph100%29.95 "Hg3 mi
2:50 AM25 °FIce fog.No wind93%29.92 "Hg1 mi
2:20 AM25 °FCold.1 mph100%29.92 "HgN/A
1:50 AM27 °FChilly.2 mph93%29.89 "Hg4 mi
1:20 AM27 °FIce fog.3 mph93%29.89 "Hg1 mi
12:50 AM28 °FChilly.2 mph86%29.89 "HgN/A
12:20 AM28 °FChilly.7 mph93%29.86 "HgN/A
11:50 PM
Jan 24
28 °FChilly.5 mph93%29.86 "HgN/A
11:20 PM28 °FChilly.6 mph93%29.86 "HgN/A
10:50 PM28 °FClear.8 mph93%29.83 "Hg10 mi
10:20 PM28 °FPassing clouds.7 mph93%29.83 "HgN/A
9:50 PM30 °FPassing clouds.7 mph93%29.83 "HgN/A
9:20 PM30 °FPassing clouds.7 mph93%29.80 "HgN/A
8:50 PM30 °FClear.6 mph93%29.80 "Hg10 mi
8:20 PM30 °FClear.6 mph93%29.80 "Hg10 mi
7:50 PM30 °FClear.5 mph93%29.80 "Hg10 mi
7:20 PM32 °FClear.6 mph93%29.77 "Hg10 mi
6:50 PM32 °FClear.6 mph93%29.77 "Hg10 mi
6:20 PM30 °FPassing clouds.8 mph100%29.77 "HgN/A
5:50 PM32 °FPassing clouds.6 mph93%29.74 "HgN/A
5:20 PM32 °FPassing clouds.7 mph93%29.74 "HgN/A
4:50 PM32 °FPassing clouds.5 mph93%29.74 "HgN/A
4:20 PM34 °FPassing clouds.9 mph93%29.71 "HgN/A
3:50 PM34 °FPassing clouds.9 mph93%29.71 "HgN/A
3:20 PM36 °FFog.8 mph93%29.71 "HgN/A
Weather by CustomWeather, © 2014

See weather overviewHow to use our weather pages